Location: Zlin
(49.2330°N, 17.6670°E)
Time: 19:00:26
(UTC+02:00)

ISS - Visible Passes

Search period start: 28 September 2016 00:00
Search period end: 08 October 2016 00:00
Orbit: 400 x 410 km, 51.6° (Epoch: 29 September)

Date Brightness Start Highest point End Pass type
(mag) Time Alt. Az. Time Alt. Az. Time Alt. Az.
29 Sep -1.4 19:42:04 10° S 19:43:54 15° SE 19:43:54 15° SE visible
30 Sep -2.2 20:24:55 10° SW 20:27:03 33° SSW 20:27:03 33° SSW visible
01 Oct -2.3 19:33:10 10° SSW 19:36:02 29° SE 19:37:19 22° ESE visible
01 Oct -0.6 21:09:05 10° WSW 21:10:00 17° W 21:10:00 17° W visible
02 Oct -3.5 20:16:56 10° WSW 20:20:08 80° S 20:20:08 80° S visible
03 Oct -3.1 19:24:54 10° SW 19:28:05 54° SSE 19:30:10 19° E visible
03 Oct -1.0 21:01:22 10° W 21:02:50 24° W 21:02:50 24° W visible
04 Oct -3.2 20:09:07 10° W 20:12:22 69° NNW 20:12:46 60° NE visible
05 Oct -3.4 19:16:54 10° WSW 19:20:10 90° ESE 19:22:39 16° ENE visible
05 Oct -1.1 20:53:37 10° WNW 20:55:18 27° WNW 20:55:18 27° WNW visible
06 Oct -2.9 20:01:20 10° W 20:04:33 55° N 20:05:07 47° NE visible
07 Oct -3.1 19:09:03 10° W 19:12:17 64° NNW 19:14:54 15° ENE visible
07 Oct -1.3 20:45:46 10° WNW 20:47:33 29° WNW 20:47:33 29° WNW visible
